Wind_Speed
3 3 7 13 6 3 5 4 4 4 3 4 8 11 11 8 6 11 11 11 14 15 25 24 29 29 27 26 25 24 23 22 23 25 25 25 24 22 20 21 21 23 25 23
4 6 10 6 5 4 3 3 5 5 3 5 9 14 13 8 9 11 15 15 16 12 9 16 29 32 34 32 29 27 27 27 27 28 29 26 26 22 22 23 22 19 19 19
8 5 4 7 4 5 5 6 5 7 3 4 4 8 8 8 7 8 10 15 12 18 18 11 21 34 36 36 35 33 31 29 29 31 30 23 26 23 22 22 23 22 20 21
6 3 5 4 4 8 6 8 5 3 1 5 2 6 6 7 10 9 14 12 19 18 12 9 18 24 35 44 39 36 34 32 32 33 33 33 34 26 25 29 26 25 23 23
8 9 7 6 7 7 7 6 6 3 3 4 4 1 4 2 8 14 13 16 16 13 11 13 16 29 34 33 40 37 34 34 34 35 37 35 33 31 31 31 28 26 25 24
4 1 7 8 3 5 8 6 5 4 2 5 11 9 10 7 12 7 12 11 11 8 8 8 17 24 28 32 36 37 36 36 36 36 36 35 35 34 34 32 31 29 28 28
2 5 3 4 6 3 3 6 2 3 1 10 3 3 16 4 7 11 13 13 4 5 6 7 9 16 22 29 32 33 37 32 37 36 37 37 37 36 38 38 37 34 33 32
9 9 12 8 11 8 9 8 6 8 4 6 5 8 7 12 11 10 10 11 4 6 6 8 8 16 21 27 31 33 34 32 38 38 38 37 36 36 36 38 39 39 39 39
6 7 2 2 2 12 7 8 4 1 2 2 5 7 8 8 13 8 14 6 7 7 8 8 8 18 21 26 29 32 33 33 38 39 38 37 36 36 37 39 39 41 43 41
4 4 1 1 3 3 6 6 3 2 3 5 6 6 7 7 10 12 13 10 8 7 7 6 7 16 21 26 29 32 33 35 38 39 39 38 37 36 37 40 41 42 43 42
6 5 1 2 7 10 4 5 2 4 5 5 3 9 8 11 11 8 8 7 6 7 8 7 7 17 22 25 29 34 35 34 37 40 39 38 37 37 37 40 42 43 44 43
9 4 6 10 2 2 2 6 8 5 5 3 3 15 3 7 6 7 7 4 1 3 6 7 7 14 18 23 29 33 33 36 39 41 39 38 37 37 38 40 42 44 45 43
7 4 2 7 3 2 5 5 8 4 3 11 7 15 3 3 4 3 7 5 4 4 4 5 6 8 16 22 26 31 36 36 39 39 39 37 37 38 40 40 43 45 45 43
12 5 8 13 4 5 5 7 11 15 7 17 14 34 11 3 6 6 8 8 6 6 7 6 7 8 17 23 26 28 32 38 40 40 39 40 40 40 40 42 45 47 46 44
12 8 11 20 10 4 7 7 14 21 28 10 35 19 31 17 10 10 9 5 8 8 8 9 10 10 15 18 23 28 32 37 40 39 38 40 40 39 40 43 46 47 46 45
9 5 10 17 17 17 13 8 17 22 23 24 31 28 15 7 7 5 10 16 11 10 11 11 10 9 15 23 26 28 31 36 39 38 36 34 36 37 39 41 44 44 43 43
15 9 9 17 10 8 9 30 24 17 19 21 23 35 17 16 10 16 13 10 10 11 12 11 13 14 20 27 28 32 31 33 38 37 38 39 38 38 41 41 42 44 44 42
3 15 8 11 5 12 16 7 23 25 24 21 25 33 29 20 15 11 19 11 11 13 10 9 10 17 26 25 29 27 30 34 35 34 38 39 39 38 39 41 43 42 42 43
12 7 6 9 15 9 9 7 9 11 24 23 28 31 31 24 2 19 8 11 15 11 9 11 18 18 19 26 28 30 31 31 31 32 32 35 36 34 38 38 38 39 39 39
12 14 8 5 6 7 8 2 4 7 14 9 17 25 27 4 8 20 3 2 6 6 8 9 12 12 17 20 25 27 26 28 27 27 30 34 36 36 35 34 35 36 37 37
4 6 15 13 12 5 5 4 3 7 7 2 1 10 8 6 9 2 4 3 4 3 7 4 3 8 13 19 24 22 23 22 24 27 28 30 32 31 31 32 32 33 31 30
7 6 5 5 7 7 7 3 9 5 3 4 3 3 4 4 6 5 4 4 5 3 3 4 9 10 12 18 22 20 18 19 20 23 25 26 26 27 28 28 27 26 27 26
8 12 6 8 5 3 7 3 3 5 7 5 3 5 5 4 4 2 2 0 2 2 5 8 15 15 12 15 16 18 16 18 21 23 23 24 24 23 23 24 25 25 26 26
3 2 2 1 5 7 5 3 2 2 3 1 2 3 3 2 2 2 2 3 3 2 4 14 18 16 16 13 12 13 18 19 22 22 22 21 21 21 21 22 24 26 27 26
2 1 2 4 7 6 7 5 3 4 3 3 2 2 3 3 3 2 2 0 1 3 8 13 15 15 16 15 15 15 17 20 21 20 22 22 22 23 23 23 25 27 28 29
3 4 3 4 4 1 4 5 4 5 4 4 2 1 2 3 2 3 3 3 3 8 13 16 18 21 19 20 18 14 13 13 17 18 17 17 18 18 19 20 17 18 17 17
Wind_Direction
3 107 198 210 182 128 135 178 215 248 248 193 242 261 264 271 229 247 242 241 239 233 244 235 231 224 220 219 217 213 207 202 199 195 191 188 185 185 186 184 185 189 191 181
43 228 230 124 161 170 145 184 250 278 250 188 272 260 260 241 242 220 230 235 235 237 221 212 223 219 218 217 215 211 209 204 201 203 196 188 185 182 182 179 177 181 191 193
172 217 120 152 158 164 212 192 216 222 312 240 306 281 243 261 242 260 243 238 238 232 233 211 203 213 214 216 214 211 206 205 202 204 198 187 180 175 176 178 178 175 185 185
232 232 146 169 194 160 241 204 171 201 91 252 152 288 262 238 250 234 250 233 240 236 234 209 201 202 209 216 215 212 206 201 204 205 201 194 187 172 184 181 178 175 178 181
233 176 179 188 197 162 225 131 162 151 182 319 188 204 241 315 266 260 248 243 243 237 219 214 203 209 212 207 210 209 205 200 205 204 206 199 192 189 185 179 177 175 176 183
234 144 167 198 130 161 144 88 59 53 103 279 175 170 273 192 220 254 260 256 242 237 233 224 209 207 204 207 206 205 203 203 204 206 204 201 197 189 181 178 175 173 174 177
131 221 189 159 96 53 147 108 300 321 17 242 84 159 242 269 261 222 246 259 266 211 203 205 188 187 187 191 194 195 198 196 203 204 207 207 205 199 193 185 181 174 173 175
193 255 167 191 194 164 200 167 175 210 208 270 141 228 245 243 267 246 256 261 190 192 218 216 200 191 190 191 190 189 190 191 201 205 207 207 207 203 198 192 187 185 182 180
171 265 233 150 131 159 197 206 221 333 89 355 243 281 295 263 269 278 251 249 247 241 241 223 196 196 192 192 193 191 189 192 199 205 206 206 207 204 201 195 191 189 186 180
220 280 42 329 119 41 166 167 75 345 201 256 266 269 228 263 252 247 267 247 229 235 253 224 200 196 201 201 196 192 192 196 199 205 207 207 206 205 204 200 197 194 185 181
176 170 283 144 211 166 136 204 154 141 158 189 296 266 212 222 232 223 261 275 229 216 233 226 207 202 204 202 195 193 193 195 201 206 205 206 204 204 205 205 201 194 187 184
207 186 220 211 253 244 285 218 166 152 220 241 176 268 171 231 273 225 250 288 240 232 218 211 201 191 193 196 198 196 195 197 207 207 205 206 205 205 205 205 201 195 190 187
174 215 358 325 4 339 220 195 196 117 86 220 168 256 1 325 288 234 258 264 245 234 213 199 185 191 194 198 201 199 201 202 206 204 205 206 205 206 206 205 201 195 192 190
147 178 206 229 179 138 192 196 193 201 215 240 230 254 259 252 261 287 272 245 236 223 220 210 207 206 203 200 202 203 205 207 206 205 204 206 207 208 207 206 201 197 195 193
164 211 216 244 246 169 201 203 200 209 229 202 250 245 256 245 253 265 262 259 230 231 226 218 213 208 205 202 203 207 208 208 209 205 204 207 210 209 208 205 201 198 196 196
176 219 200 250 241 241 243 212 220 221 232 235 254 260 250 222 229 234 241 245 243 226 229 227 217 198 204 203 205 204 206 207 207 205 205 205 208 205 204 202 200 199 198 198
171 187 182 248 226 183 233 230 225 220 223 223 241 247 252 260 224 246 255 235 232 241 235 223 213 214 211 209 201 204 201 202 205 203 207 207 207 203 203 202 201 201 200 200
281 208 198 235 150 221 234 191 216 223 232 226 246 256 256 252 261 255 251 252 232 236 238 229 221 220 219 212 207 202 196 200 198 198 204 206 205 199 201 201 201 201 201 201
219 238 226 221 231 261 296 235 163 179 245 230 231 252 261 260 358 268 243 214 244 241 231 237 240 232 218 210 206 196 188 191 191 195 196 195 197 192 197 196 195 197 199 201
219 210 232 189 212 219 231 252 212 123 247 240 213 242 252 221 240 264 53 351 288 293 281 271 260 237 210 204 195 182 178 183 190 190 192 197 197 198 196 194 195 198 203 204
196 214 229 243 244 245 235 235 179 160 235 299 261 247 279 191 231 258 334 305 320 295 316 308 201 194 193 183 181 172 176 185 190 194 196 196 196 194 196 195 197 199 199 203
192 201 198 217 252 248 165 93 167 203 173 186 244 240 250 236 283 297 311 307 328 338 33 91 111 115 149 169 173 166 172 188 188 186 185 187 189 191 191 194 196 199 202 205
239 221 212 194 217 253 203 229 218 174 179 210 201 215 220 239 218 238 235 8 345 28 88 110 121 115 126 156 170 157 163 173 173 174 176 179 185 192 197 196 199 197 203 200
266 239 212 32 249 253 244 229 241 215 233 176 243 279 236 251 239 224 172 166 118 70 88 123 118 108 107 135 149 154 158 164 164 165 170 175 182 185 191 194 200 191 202 215
200 140 242 289 288 288 262 233 248 225 223 226 233 308 273 155 246 242 206 221 69 94 120 125 112 108 107 121 125 144 156 163 161 166 171 176 182 186 190 198 208 213 221 222
210 217 210 239 233 280 291 330 309 206 222 237 227 127 50 23 52 94 61 24 65 98 113 103 104 105 107 107 104 116 141 158 156 155 166 175 179 186 192 194 193 212 225 229
Height
818 827 831 822 827 824 833 836 835 832 822 826 828 825 814 808 815 813 809 808 804 802 790 798 802 807 809 812 814 817 821 824 828 832 835 838 841 844 847 850 853 856 858 860
826 831 816 817 824 824 828 832 838 832 825 827 825 821 808 808 803 797 794 794 793 790 789 789 794 798 800 804 808 812 815 819 823 828 830 833 837 841 845 848 850 854 857 859
825 812 812 816 824 828 831 836 836 830 824 828 826 820 810 792 792 788 786 779 780 777 777 781 785 787 792 797 800 805 810 815 819 823 827 831 835 839 842 845 848 851 855 858
819 809 811 818 821 822 832 824 825 826 831 843 823 832 801 789 785 783 774 774 767 766 768 770 775 779 782 784 792 798 804 809 814 818 822 824 827 832 836 840 845 848 852 857
805 811 813 815 813 817 820 821 827 826 836 835 833 834 789 791 786 772 763 759 757 757 760 763 765 767 772 780 785 792 799 805 808 813 818 821 824 828 832 837 842 845 850 855
802 801 804 802 807 809 818 822 832 844 842 841 819 822 783 789 771 764 750 749 749 752 756 758 760 764 768 774 781 787 793 798 803 809 813 817 820 823 828 834 838 843 847 853
804 802 797 797 809 812 812 821 840 847 861 823 820 823 769 762 761 756 748 742 744 749 753 756 758 760 764 768 774 781 787 793 799 805 810 813 817 820 823 827 833 839 844 850
803 801 797 792 788 804 816 812 834 845 848 823 823 810 777 755 748 746 744 743 746 750 751 753 754 756 760 764 769 774 781 787 793 799 804 810 813 817 822 826 829 833 838 845
805 801 786 787 783 785 812 814 801 812 887 851 788 775 758 752 749 748 742 743 746 749 749 751 752 753 757 761 765 771 776 781 787 793 799 804 809 813 817 822 827 830 835 842
783 797 791 787 784 790 791 796 817 831 834 852 789 784 768 746 739 738 739 738 741 744 746 749 750 751 754 757 762 767 773 778 783 789 794 799 804 809 814 819 823 828 833 838
781 788 794 791 790 791 795 798 800 806 818 825 829 754 748 735 729 730 730 733 735 739 743 745 746 747 750 754 758 762 767 773 779 785 790 795 799 804 809 814 819 825 831 836
776 783 793 788 783 784 777 778 785 799 814 828 819 746 730 734 732 733 728 730 731 734 739 742 744 745 749 752 756 760 765 768 773 780 786 791 795 800 805 810 815 821 827 834
770 781 813 786 786 786 783 779 773 788 803 794 796 738 738 734 729 728 731 730 733 735 739 742 743 744 746 749 753 755 759 764 769 775 781 787 790 795 800 805 812 818 824 830
760 777 774 759 760 770 780 778 773 769 782 749 769 719 728 729 731 731 730 731 731 735 737 738 740 740 741 741 745 751 755 759 764 770 775 779 782 788 794 800 806 813 820 826
758 773 771 756 756 760 765 767 766 761 743 766 718 746 704 725 733 728 723 725 728 730 734 732 732 732 735 738 740 744 749 754 760 765 769 772 777 784 789 794 801 808 814 820
753 761 767 761 756 757 759 760 755 752 746 746 729 731 704 717 721 726 723 715 718 724 722 721 722 725 726 727 730 735 740 745 753 759 764 771 776 780 785 792 799 805 811 816
745 751 758 741 742 760 760 738 739 743 735 733 737 699 706 712 719 711 713 714 713 713 710 710 713 713 714 715 718 723 730 739 745 751 757 763 769 774 779 787 795 802 806 812
745 740 737 730 746 729 708 708 714 718 717 723 717 694 693 701 704 707 697 703 705 702 702 703 702 702 701 706 710 717 723 730 737 744 749 756 763 768 775 781 788 796 802 807
743 746 724 718 708 709 709 704 710 715 702 701 701 693 686 693 706 693 692 694 691 691 692 692 692 693 696 699 705 710 715 724 731 736 743 749 758 765 772 778 783 790 798 805
732 732 731 719 702 702 692 696 695 700 704 683 695 687 684 696 709 677 688 690 691 691 690 689 689 690 693 697 702 707 712 719 724 732 738 745 752 761 768 776 782 787 794 801
725 723 714 702 695 698 702 707 698 705 695 705 703 688 692 699 688 693 693 691 693 691 689 686 687 690 692 696 701 707 712 717 723 730 737 744 751 757 766 774 780 785 793 800
712 707 700 704 697 687 701 705 697 692 694 701 697 692 693 694 693 693 695 695 694 693 690 688 688 691 694 698 701 708 714 719 725 731 738 745 752 757 764 771 779 786 792 798
711 690 692 695 688 683 693 685 683 685 687 691 690 689 692 692 690 693 694 695 696 694 690 689 690 694 697 701 705 711 716 720 726 732 738 745 751 757 764 771 778 784 789 794
708 704 703 701 693 690 690 692 691 690 690 690 692 692 694 691 692 693 693 694 694 694 693 693 693 698 700 703 707 713 718 723 727 731 738 745 751 757 764 770 775 780 785 789
706 706 705 701 693 693 687 687 687 688 689 690 691 691 691 689 694 696 697 697 696 696 698 697 698 702 705 708 711 716 720 724 727 732 738 744 749 756 762 768 772 776 779 784
713 703 701 695 686 686 686 689 688 690 691 691 690 691 693 694 696 700 703 702 701 700 702 702 705 708 712 714 717 721 724 727 729 733 739 745 749 754 759 764 769 773 777 781